THOR ABLESTAR DEB, 350

Orbit data source: Space-Track

THOR ABLESTAR DEB, 350 is space debris in LEO originally from a launch on Thu, 29 Jun 1961 UTC launched from the Air Force Eastern Test Range (AFETR). Debris objects in space refer to the collection of defunct objects orbiting the Earth. Examples of debris include non-operational satellites, rocket bodies, and fragments generated from explosions, collisions, or faulty payload assembly.

Loading next visibility...
Identifier
350, 1961-015DQ
Orbit
LEO
Country
Flag of USUS
Related business
Manufacturer
Unknown
Mission
Spacecraft
Bus & Motor
Unknown
Mass
Unknown
Launch date (UTC)
1961-06-29 (65 years ago)
Launch vehicle
Unknown
Launch site
Air Force Eastern Test Range (AFETR)
Object type
Payload
Rocket body
Debris
Shape & HBR
Unknown shape, 0.2 m
Radar Cross Section
Medium (>0.1 m² and <1 m²)

Expand to show TLE details & history
Last TLE update: 13 hours ago

TLE from 13 hours ago
0 THOR ABLESTAR DEB
1 00350U 61015DQ  26128.05238338  .00000115  00000-0  81502-4 0  9999
2 00350  66.9126 332.9637 0124591 182.3042 177.7497 14.22626917357248
Epoch: 2026-05-08T01:15Z
TLE epoch observation values (Epoch: 2026-05-08T01:15:25.924Z)
Latitude
-0.00002°
Longitude
88.21597°
Altitude
908.18 km
Speed
7.352 km/s
True Right ascension
22h 11m 51s
True Declination
0° 00' 00"
Sunlit
Object was in daylight at epoch
Visualization orbit readout
Latitude
Unknown
Longitude
Unknown
Altitude
Unknown
Speed
Unknown
Apparent Right ascension
Unknown
Apparent Declination
Unknown
Sunlit
N/A
Visualization observer readout
Local Sidereal Time
21:57:54
Azimuth
Unknown
Elevation
Unknown
Doppler factor
Unknown
Orbital elements
Apogee altitude
904.456 km
Perigee altitude
725.22 km
Semi-major axis
7,192.975 km
Eccentricity
0.01246
Inclination
66.9126°
RAAN
332.9637°
Arg. of periapsis
182.3042°
True anomaly
177.8049°
Mean anomaly
177.7497°
Eccentric anomaly
177.77738°
Mean motion
3.55779 °/min
Orbital period
101.19 mins
BSTAR
0.000081502
Loading maneuver chart data...
Computing Atmospheric mass density...

Documentation

Showing up to 5 results
|